Location: ????
(32.1228°N, 34.8377°E)
Time: 01:32:22
(UTC+00:00)

SJ 16-02 - Pass Details

Date: 21 September 2020
Orbit: 606 x 616 km, 75.0° (Epoch: 21 October)

Event Time Altitude Azimuth Distance (km) Brightness Sun altitude
Rises 02:59:16 0° 319° (NW) 2,872 4.4 -7.0°
Reaches altitude 10° 03:02:38 10° 292° (WNW) 1,965 3.4 -6.3°
Maximum altitude 03:04:38 13° 265° (W) 1,772 3.0 -5.9°
Drops below altitude 10° 03:06:38 10° 237° (WSW) 1,962 3.4 -5.4°
Sets 03:09:59 0° 210° (SSW) 2,863 4.4 -4.7°
